Location: USNO
(38.9242°N, 77.0663°W)
Time: 10:43:15
(UTC-04:00)

OTV 5 (USA 277) - Pass Details

Date: 09 October 2017
Orbit: 404 x 417 km, 43.0° (Epoch: 07 September)

Event Time Altitude Azimuth Distance (km) Brightness Sun altitude
Rises 20:33:07 0° 248° (WSW) 2,347 ? -23.1°
Reaches altitude 10° 20:35:13 10° 248° (WSW) 1,486 ? -23.5°
Enters shadow 20:37:20 36° 248° (WSW) 676 ? -23.9°
